Regional Weather Roundup
Issued by NWS New Orleans/Baton Rouge, LA

Home | Current Version | Previous Version | Graphics & Text | Print | Product List | Glossary On
Versions: 1 2 3 4 5 6 7 8 9 10 11 12 13 14 15 16 17 18 19 20 21 22 23 24 25 26 27 28 29 30 31 32 33 34 35 36 37 38 39 40 41 42 43 44 45 46 47 48 49 50
931
ASUS44 KLIX 020710
RWRLIX
NEW ORLEANS REGIONAL WEATHER ROUNDUP
NATIONAL WEATHER SERVICE NEW ORLEANS LA
100 AM CST MON MAR 02 2015

NOTE: "FAIR" INDICATES FEW OR NO CLOUDS BELOW 12,000 FEET WITH NO
      SIGNIFICANT WEATHER AND/OR OBSTRUCTIONS TO VISIBILITY.
      SKY/WX - SKY CONDITION AND SIGNIFICANT WEATHER.
      TMP - AIR TEMPERATURE.     DP    - DEWPOINT TEMPERATURE.
      RH  - RELATIVE HUMIDITY.   PRES  - PRESSURE.
      HI  - HEAT INDEX.          WCI   - WIND CHILL INDEX.

*  THESE STATIONS ARE NOT NWS OR FAA STATIONS AND ARE NOT UNDER
   NWS QUALITY CONTROL.

LAZ038-040-048-061>063-065>067-069-020800-
SOUTHEAST LOUISIANA

CITY           SKY/WX    TMP DP  RH WIND       PRES   REMARKS
N.O. AUDUBON     N/A     58  58 100 MISG        N/A
N.O. INTL ARPT LGT RAIN  61  59  93 SE9       30.28F
N.O. LAKEFRONT RAIN      61  58  90 E15       30.28F FOG
SLIDELL        LGT RAIN  61  60  97 SE7       30.28F
BATON ROUGE    LGT RAIN  61  60  97 E3        30.27F FOG
BOOTHVILLE     FOG       62  62 100 E7        30.28F VSB 1/4
BELLE CHASSE   LGT RAIN  58  55  90 E14       30.28F
BOGALUSA*      DRIZZLE   61  58  88 CALM      30.30F
GALLIANO*      FOG       56  55  99 CALM      30.27F VSB 1/4
NEW ROADS*     RAIN      62  61  97 E8        30.27S
GONZALES*      RAIN      61  61 100 E5        30.28S
HAMMOND*       HVY RAIN  61  57  88 SE5       30.29F
HOUMA*         LGT RAIN  61  60  98 NE6       30.28S
PORT FOURCHON* FOG       64  64 100 SE6G12    30.29F VSB 1/4

$$

MSZ070-080>082-020800-
SOUTHERN MISSISSIPPI

CITY           SKY/WX    TMP DP  RH WIND       PRES   REMARKS
MCCOMB         CLOUDY    61  60  97 SE5       30.28F
GULFPORT       LGT RAIN  59  57  93 E10       30.31F FOG
BILOXI         RAIN      59  59 100 E6        30.30F
PASCAGOULA     HVY RAIN  57  56  96 E9        30.31F FOG

$$

COASTAL OBSERVATIONS
LAKE AND NEARSHORE STATIONS

STATION/POSITION TIME  TEMP    WIND        PRES    WAVE
                       AIR SEA DIR/SP/G            HT/PER
                 (UTC) (F)     (DEG/KT/KT) (MB)    (FT/S)
PASCAGOULA       0700   57      70/ 10/ 13 1026.3
WAVELAND YACHT   0700   58 54  120/ 12/ 15 1025.8
GRAND ISLE       0700      59  110/  5/  8 1025.3
SOUTHWEST PASS   0700      47  130/ 10/ 13 1025.3
NEW CANAL        0700           80/  6/ 13 1025.4
SHELL BEACH      0700   56 55   70/ 16/ 18 1025.6

OFFSHORE STATIONS

STATION/POSITION TIME  TEMP    WIND        PRES    WAVE
                       AIR SEA DIR/SP/G            HT/PER
                 (UTC) (F)     (DEG/KT/KT) (MB)    (FT/S)
64 S DAUPHIN ISL 0558   69 71   90/ 12/ 14 1026.2    3/ 6

$$




USA.gov is the U.S. government's official web portal to all federal, state and local government web resources and services.